| time (UTC) | temp C | wind direction | speed KPH | gust KPH | rain 1hr cm | rain 24hr cm | rain mn cm | humidity % | barometer mb |
| 20260505041537 | 5 | 238 | 12.9 | 19.3 | 0.00 | 0.08 | 0.00 | 88 | 1010.2 |
| 20260505040018 | 5 | 245 | 8.0 | 14.5 | 0.00 | 0.08 | 0.00 | 88 | 1010.0 |
| 20260505034515 | 5 | 266 | 4.8 | 14.5 | 0.00 | 0.18 | 0.00 | 87 | 1009.8 |
| 20260505033013 | 6 | 250 | 6.4 | 16.1 | 0.00 | 0.18 | 0.00 | 87 | 1009.4 |
| 20260505031510 | 6 | 250 | 6.4 | 16.1 | 0.00 | 0.18 | 0.00 | 87 | 1009.2 |
| 20260505030006 | 6 | 274 | 6.4 | 19.3 | 0.00 | 0.18 | 0.00 | 87 | 1009.0 |
| 20260505024505 | 6 | 290 | 8.0 | 17.7 | 0.00 | 0.20 | 0.18 | 86 | 1008.7 |
| 20260505023003 | 6 | 295 | 6.4 | 22.5 | 0.00 | 0.20 | 0.18 | 86 | 1008.6 |
| 20260505021600 | 6 | 253 | 9.7 | 19.3 | 0.00 | 0.20 | 0.18 | 87 | 1008.4 |
| 20260505020058 | 6 | 247 | 9.7 | 20.9 | 0.00 | 0.20 | 0.18 | 87 | 1008.2 |
| 20260505014618 | 5 | 252 | 9.7 | 17.7 | 0.00 | 0.23 | 0.18 | 88 | 1008.1 |
| 20260505013055 | 5 | 253 | 6.4 | 16.1 | 0.00 | 0.23 | 0.18 | 88 | 1007.9 |
| 20260505011603 | 5 | 262 | 6.4 | 22.5 | 0.00 | 0.23 | 0.18 | 88 | 1007.8 |
| 20260505010052 | 5 | 302 | 12.9 | 25.7 | 0.00 | 0.23 | 0.18 | 88 | 1007.7 |
| 20260505004551 | 5 | 307 | 12.9 | 25.7 | 0.00 | 0.25 | 0.18 | 89 | 1007.6 |
| 20260505003049 | 5 | 273 | 14.5 | 24.1 | 0.00 | 0.25 | 0.18 | 89 | 1007.4 |
| 20260505001602 | 5 | 262 | 8.0 | 19.3 | 0.00 | 0.25 | 0.18 | 89 | 1007.2 |
| 20260505000104 | 6 | 242 | 9.7 | 25.7 | 0.00 | 0.25 | 0.18 | 88 | 1007.2 |
| 20260504234603 | 6 | 250 | 11.3 | 27.4 | 0.00 | 0.33 | 0.18 | 88 | 1006.9 |
| 20260504233050 | 6 | 271 | 14.5 | 27.4 | 0.00 | 0.33 | 0.18 | 88 | 1006.8 |
| 20260504231541 | 6 | 247 | 9.7 | 20.9 | 0.00 | 0.33 | 0.18 | 88 | 1006.6 |
| 20260504230041 | 5 | 266 | 8.0 | 22.5 | 0.00 | 0.33 | 0.18 | 89 | 1006.4 |
| 20260504224548 | 6 | 243 | 12.9 | 32.2 | 0.00 | 0.64 | 0.18 | 88 | 1006.3 |
| 20260504223044 | 6 | 246 | 14.5 | 29.0 | 0.00 | 0.64 | 0.18 | 87 | 1006.4 |
| 20260504221538 | 6 | 270 | 14.5 | 30.6 | 0.00 | 0.64 | 0.18 | 85 | 1006.5 |
| 20260504220037 | 6 | 337 | 12.9 | 29.0 | 0.00 | 0.64 | 0.18 | 85 | 1006.2 |
| 20260504214534 | 6 | 248 | 14.5 | 38.6 | 0.00 | 0.76 | 0.18 | 84 | 1005.9 |
| 20260504213053 | 7 | 240 | 16.1 | 30.6 | 0.00 | 0.76 | 0.18 | 82 | 1005.7 |
| 20260504211532 | 7 | 246 | 14.5 | 29.0 | 0.00 | 0.76 | 0.18 | 79 | 1005.5 |
| 20260504210031 | 8 | 246 | 14.5 | 29.0 | 0.00 | 0.76 | 0.18 | 75 | 1005.4 |
| 20260504204531 | 8 | 269 | 14.5 | 30.6 | 0.00 | 0.89 | 0.18 | 74 | 1005.5 |
| 20260504203034 | 9 | 288 | 17.7 | 35.4 | 0.00 | 0.89 | 0.18 | 72 | 1005.3 |
| 20260504201508 | 9 | 255 | 14.5 | 33.8 | 0.00 | 0.89 | 0.18 | 72 | 1005.2 |
| 20260504200004 | 9 | 252 | 17.7 | 37.0 | 0.00 | 0.89 | 0.18 | 72 | 1005.1 |
| 20260504194504 | 10 | 243 | 22.5 | 38.6 | 0.00 | 1.09 | 0.18 | 70 | 1005.0 |
| 20260504193003 | 10 | 264 | 16.1 | 33.8 | 0.00 | 1.09 | 0.18 | 69 | 1004.8 |
| 20260504191502 | 10 | 269 | 19.3 | 35.4 | 0.00 | 1.09 | 0.18 | 63 | 1004.9 |
| 20260504190119 | 10 | 234 | 14.5 | 29.0 | 0.00 | 1.09 | 0.18 | 62 | 1004.6 |
| 20260504184608 | 10 | 282 | 16.1 | 33.8 | 0.00 | 1.27 | 0.18 | 62 | 1004.4 |
| 20260504183057 | 11 | 228 | 20.9 | 35.4 | 0.00 | 1.27 | 0.18 | 56 | 1004.3 |
| 20260504181558 | 13 | 219 | 16.1 | 29.0 | 0.00 | 1.27 | 0.18 | 52 | 1004.2 |
| 20260504180055 | 15 | 248 | 11.3 | 33.8 | 0.00 | 1.27 | 0.18 | 38 | 1004.3 |
| 20260504174602 | 15 | 30 | 14.5 | 37.0 | 0.00 | 1.60 | 0.18 | 37 | 1004.3 |
| 20260504173056 | 15 | 303 | 12.9 | 37.0 | 0.00 | 1.60 | 0.18 | 38 | 1004.3 |
| 20260504171551 | 14 | 224 | 16.1 | 32.2 | 0.00 | 1.60 | 0.18 | 39 | 1004.2 |
| 20260504081510 | 3 | 243 | 4.8 | 17.7 | 0.00 | 1.91 | 0.18 | 93 | 996.6 |
| 20260504044554 | 2 | 268 | 8.0 | 32.2 | 0.05 | 1.85 | 0.15 | 94 | 991.6 |
| 20260504043039 | 2 | 259 | 8.0 | 32.2 | 0.05 | 1.83 | 0.13 | 94 | 991.1 |